Accueil
METAR-TAF:

METAR-TAF

Aéroports :

Chatham Municipal Airport

Chatham, Massachusetts, États-Unis

latitude: 41-41-15N, longitude: 069-59-36W, altitude: 20 m

Observation

Le bulletin a été fait il y a 44 minutes, à 20:52 UTC
Vent 8 kt de sud/sud-ouest
Température 26°C
Humidité 79%
Pression 1015 hPa
Visibilité: 16.1 km
Ciel clair

METAR: KCQX 162052Z AUTO 21008KT 10SM CLR 26/22 A2998 RMK AO2 SLP154 T02610217 56005 TSNO

Heure: 17:36 (21:36 UTC)


TAF: absent

Observations et prévisions météorologiques de plus de 4000 aéroports (messages METAR et TAF).

Les stations disponibles sont représentées par des disques jaunes et rouges sur la carte.

Passer la souris dessus pour voir le nom de la station.

Cliquer dessus pour voir les observations et prévisions météorologiques.

Pour changer de carte: cliquez sur les boutons verts avec une croix noire pour zoomer, sur le bouton vert avec un tiret pour effectuer un zoom arrière, ou sur les flèches vertes pour les cartes adjacentes.


METAR-TAF: